Regional Weather Roundup
Issued by NWS

Home | Current Version | Previous Version | Graphics & Text | Print | Product List | Glossary On
Versions: 1 2 3 4 5 6 7 8 9 10 11 12 13 14 15 16 17 18 19 20 21 22 23 24 25 26 27 28 29 30 31 32 33 34 35 36 37 38 39 40 41 42 43 44 45 46 47 48 49 50
000
ASUS43 KLMK 030710
RWRKY
KENTUCKY REGIONAL WEATHER ROUNDUP
NATIONAL WEATHER SERVICE LOUISVILLE KY
300 AM EDT SUN MAY 03 2015

NOTE "FAIR" INDICATES FEW OR NO CLOUDS BELOW 12,000 FEET
WITH NO SIGNIFICANT WEATHER AND/OR OBSTRUCTIONS TO VISIBILITY.

KYZ001>023-026-027-061>063-070>075-030800-
WESTERN AND SOUTH CENTRAL KENTUCKY

CITY           SKY/WX    TMP DP  RH WIND       PRES   REMARKS
PADUCAH        CLEAR     53  47  79 CALM      30.03F
HENDERSON      CLEAR     54  46  76 CALM      30.04S
OWENSBORO      CLEAR     57  51  80 CALM      30.06F
HOPKINSVILLE   CLEAR     56  50  80 CALM      30.06S
BOWLING GREEN  PTCLDY    51  48  89 CALM      30.07F
GLASGOW        CLEAR     48  48 100 CALM      30.08S
$$

KYZ024-025-028>034-038-045-046-053-030800-
NORTH CENTRAL KENTUCKY

CITY           SKY/WX    TMP DP  RH WIND       PRES   REMARKS
LOUISVILLE/SDF MOCLDY    57  48  72 CALM      30.07S
LOUISVILLE/LOU CLEAR     55  48  77 CALM      30.07F
FORT KNOX      CLEAR     51  47  84 CALM      30.06S
$$

KYZ035>037-039>044-047>052-055>060-089>105-030800-
NORTHEAST KENTUCKY

CITY           SKY/WX    TMP DP  RH WIND       PRES   REMARKS
LEXINGTON      PTCLDY    53  44  71 CALM      30.08F
COVINGTON      PTCLDY    52  46  80 CALM      30.07S
FRANKFORT      PTCLDY    49  45  86 CALM      30.07F
$$

KYZ054-064>069-076>088-106>120-030800-
SOUTHEAST KENTUCKY

CITY           SKY/WX    TMP DP  RH WIND       PRES   REMARKS
JACKSON        CLEAR     58  38  47 CALM      30.10F
LONDON         PTCLDY    49  43  80 CALM      30.10F
SOMERSET       PTCLDY    46  45  93 CALM      30.11S
MIDDLESBORO    CLEAR     44  43  97 CALM      30.13F
MONTICELLO     SUNNY     45  44  96 CALM      30.12F
$$



USA.gov is the U.S. government's official web portal to all federal, state and local government web resources and services.